Home > Weather > Brno > Past weeks

Flag for Czech Republic Weather for the Past 2 Weeks in Brno, Czech Republic

Now
56 °F

Scattered clouds.


Feels Like: 55 °F
Forecast: 41 / 63 °F
Wind: 5 mph from Southeast

Location: Brno / Turany

Current Time: Apr 30, 2016 at 9:17:46 PM

Latest Report: Apr 30, 2016 at 8:00 PM


Visibility: 25 mi

Pressure: 30.03 "Hg

Humidity: 52%

Dew Point: 38 °F

Location of BrnoLocation

Historic Weather in Brno — Graph

°F

Brno Temperature Yesterday

Maximum temperature yesterday: 58 °F (at 4:00 PM)
Minimum temperature yesterday: 31 °F (at 6:00 AM)
Average temperature yesterday: 50 °F

High & Low Weather Summary for the Past Weeks

 TemperatureHumidityPressure
High70 °F (Apr 17, 3:00 PM)94% (Apr 18, 12:00 AM)30.40 "Hg (Apr 18, 12:00 AM)
Low30 °F (Apr 28, 2:00 AM)31% (Apr 21, 5:00 PM)29.61 "Hg (Apr 26, 4:00 PM)
Average50 °F59%29.98 "Hg
* Reported Apr 15 8:00 PM — Apr 30 8:00 PM, Brno, Weather by CustomWeather, © 2016

Note: Actual official high and low records may vary slightly from our data, if they occured in-between our weather recording intervals... More about our weather records

Advertising

Brno Weather History for the Previous 24 Hours

Scroll right to see more
 ConditionsComfort  
Time TempWeatherWind HumidityBarometerVisibility
8:00 PM
Sat, Apr 30
56 °FScattered clouds.5 mph52%30.03 "Hg25 mi
7:00 PM60 °FScattered clouds.5 mph47%30.02 "Hg25 mi
6:00 PM63 °FScattered clouds.3 mph38%30.02 "Hg25 mi
5:00 PM64 °FPassing clouds.3 mph36%30.02 "Hg25 mi
4:00 PM64 °FPassing clouds.2 mph37%30.03 "Hg25 mi
3:00 PM62 °FPassing clouds.3 mph36%30.05 "Hg25 mi
2:00 PM62 °FPassing clouds.2 mph39%30.06 "Hg22 mi
1:00 PM60 °FScattered clouds.2 mph40%30.08 "Hg22 mi
12:00 PM60 °FPassing clouds.2 mph44%30.09 "Hg19 mi
9:00 AM51 °FScattered clouds.5 mph59%30.12 "Hg12 mi
8:00 AM43 °FScattered clouds.3 mph69%30.14 "Hg16 mi
7:00 AM38 °FScattered clouds.1 mph76%30.15 "Hg16 mi
3:00 AM38 °FClear.1 mph71%30.14 "Hg19 mi
2:00 AM39 °FPassing clouds.2 mph66%30.14 "Hg19 mi
1:00 AM40 °FPassing clouds.1 mph69%30.14 "Hg19 mi
11:00 PM
Fri, Apr 29
44 °FPassing clouds.3 mph56%30.14 "Hg19 mi
10:00 PM47 °FPassing clouds.3 mph47%30.13 "Hg19 mi
9:00 PM53 °FPassing clouds.3 mph38%30.12 "Hg22 mi
Weather by CustomWeather, © 2016

See weather overviewHow to use our weather pages